map of DXB home
DXB - Airport
Location
City:  Dubai, Dubai, United Arab Emirates
Name:Dubai International Airport
ICAO:OMDB
IATA:DXB

Details
Type:Airport (Aerodrome, Airfield)
Use:Public/Civil, International (customs port of entry)
Latitude:2515'10"N (25.252778)
Longitude:5521'52"E (55.364444)
Datum:WGS 1984
Elevation:62 ft (19 m)
Variation:2.08E (WMM2015 magnetic declination)
0.05 annual change
Runways:2
Longest:13124 × 197 ft (4000 × 60 m), paved

Time
Time Zone:UTC+4
Local Time:

Weather
METAR:OMDB 190000Z 17007KT 090V200 8000 NSC 33/25 Q0997 NOSIG
TAF:OMDB 182256Z 1900/2006 19007KT 8000 NSC
BECMG 1906/1908 29012KT
BECMG 1917/1919 16005KT

Related Locations
Nearby:
Farthest:GMR: 11782 mi / 18962 km
Mangareva [Totegegie], Gambier Islands, PF

Find:

   beyond  
but within

Other Information
Maps:
NOTAMs:
Links:
Sources:

  
  • flag of United Arab Emirates
  • flag of Dubai
  

Airport Diagram

Airport diagram for DXB

Larger airport diagram (OBSOLETE) from NGA

Sectional Chart

Flight Planning
at skyvector.com

Satellite Image

Google Maps Satellite view

 

Copyright © 2004-2018 Karl L. Swartz. All rights reserved.
The Great Circle Mapper name and logo are trademarks of the Great Circle Mapper.
All other trademarks mentioned herein belong to their respective owners.
Please see credits for attibutions and further copyright information.

  Follow gcmap on Facebook Follow gcmap on Twitter Follow gcmap on Google+ GCmap on LinkedIn

hCard Microformat

Geo Microformat